I1SXT-13 Weather Reports


Display with metric or nautical units.
time (UTC)temp
F
wind
direction
speed
MPH
gust
MPH
rain 1hr
in
rain 24hr
in
rain mn
in
humidity
%
barometer
mb
20260507141930 70 0.0 0.0 0.00 0.00 0.00 67 1016.0
20260507141426 68 0.0 0.0 0.00 0.00 0.00 68 1015.2
20260507140929 70 0.0 0.0 0.00 0.00 0.00 68 1015.6
20260507140425 67 0.0 0.0 0.00 0.00 0.00 71 1015.3
20260507135927 69 0.0 0.0 0.00 0.00 0.00 68 1015.5
20260507135423 68 0.0 0.0 0.00 0.00 0.00 69 1016.0
20260507134926 69 0.0 0.0 0.00 0.00 0.00 69 1016.0
20260507134429 68 0.0 0.0 0.00 0.00 0.00 67 1015.5
20260507133925 69 0.0 0.0 0.00 0.00 0.00 70 1015.8
20260507133428 66 0.0 0.0 0.00 0.00 0.00 72 1015.4
20260507132924 68 0.0 0.0 0.00 0.00 0.00 68 1015.8
20260507131929 68 0.0 0.0 0.00 0.00 0.00 70 1015.2
20260507131425 68 0.0 0.0 0.00 0.00 0.00 72 1015.5
20260507130928 68 0.0 0.0 0.00 0.00 0.00 70 1016.0
20260507130424 72 0.0 0.0 0.00 0.00 0.00 63 1015.6
20260507125927 70 0.0 0.0 0.00 0.00 0.00 65 1015.7
20260507125430 71 0.0 0.0 0.00 0.00 0.00 67 1014.8
20260507124926 69 0.0 0.0 0.00 0.00 0.00 70 1015.4
20260507124429 68 0.0 0.0 0.00 0.00 0.00 71 1015.8
20260507123924 67 0.0 0.0 0.00 0.00 0.00 70 1015.8
20260507123427 69 0.0 0.0 0.00 0.00 0.00 69 1016.0
20260507122923 70 0.0 0.0 0.00 0.00 0.00 69 1015.8
20260507122426 69 0.0 0.0 0.00 0.00 0.00 69 1015.5
20260507121929 70 0.0 0.0 0.00 0.00 0.00 68 1015.5
20260507121425 69 0.0 0.0 0.00 0.00 0.00 70 1015.1
20260507120928 69 0.0 0.0 0.00 0.00 0.00 69 1015.9
20260507120424 68 0.0 0.0 0.00 0.00 0.00 69 1015.0
20260507115926 67 0.0 0.0 0.00 0.00 0.00 70 1015.4
20260507115429 68 0.0 0.0 0.00 0.00 0.00 70 1015.4
20260507114925 68 0.0 0.0 0.00 0.00 0.00 71 1016.1
20260507114428 65 0.0 0.0 0.00 0.00 0.00 75 1015.9
20260507113924 66 0.0 0.0 0.00 0.00 0.00 72 1015.6
20260507112426 65 0.0 0.0 0.00 0.00 0.00 72 1015.4
20260507111928 67 0.0 0.0 0.00 0.00 0.00 69 1015.6
20260507110423 67 0.0 0.0 0.00 0.00 0.00 69 1015.2
20260507105926 67 0.0 0.0 0.00 0.00 0.00 71 1015.0
20260507105429 67 0.0 0.0 0.00 0.00 0.00 70 1015.6
20260507104428 66 0.0 0.0 0.00 0.00 0.00 70 1015.2
20260507103924 67 0.0 0.0 0.00 0.00 0.00 71 1015.2
20260507103427 66 0.0 0.0 0.00 0.00 0.00 72 1015.1
20260507102929 66 0.0 0.0 0.00 0.00 0.00 73 1015.5
20260507102425 65 0.0 0.0 0.00 0.00 0.00 74 1015.5
20260507101928 66 0.0 0.0 0.00 0.00 0.00 74 1015.2
20260507100927 65 0.0 0.0 0.00 0.00 0.00 73 1014.8
20260507100430 66 0.0 0.0 0.00 0.00 0.00 71 1015.2
20260507095926 66 0.0 0.0 0.00 0.00 0.00 74 1014.8
20260507095429 65 0.0 0.0 0.00 0.00 0.00 72 1015.5
20260507094925 67 0.0 0.0 0.00 0.00 0.00 72 1014.8
20260507094427 65 0.0 0.0 0.00 0.00 0.00 70 1014.9
20260507093923 65 0.0 0.0 0.00 0.00 0.00 72 1014.8
20260507093426 65 0.0 0.0 0.00 0.00 0.00 73 1014.8
20260507092929 65 0.0 0.0 0.00 0.00 0.00 71 1015.1
20260507092425 65 0.0 0.0 0.00 0.00 0.00 72 1014.8
20260507091928 65 0.0 0.0 0.00 0.00 0.00 74 1014.9
20260507091424 65 0.0 0.0 0.00 0.00 0.00 72 1014.7
20260507090927 65 0.0 0.0 0.00 0.00 0.00 71 1014.7
20260507090429 65 0.0 0.0 0.00 0.00 0.00 74 1015.1
20260507085925 64 0.0 0.0 0.00 0.00 0.00 75 1015.0
20260507085428 65 0.0 0.0 0.00 0.00 0.00 73 1014.7
20260507084924 65 0.0 0.0 0.00 0.00 0.00 72 1014.6
20260507084427 65 0.0 0.0 0.00 0.00 0.00 72 1014.6
20260507083930 64 0.0 0.0 0.00 0.00 0.00 75 1014.7
20260507083426 64 0.0 0.0 0.00 0.00 0.00 72 1014.7
20260507082928 64 0.0 0.0 0.00 0.00 0.00 72 1014.5
20260507082424 64 0.0 0.0 0.00 0.00 0.00 72 1014.5
20260507081927 64 0.0 0.0 0.00 0.00 0.00 73 1014.7
20260507081423 64 0.0 0.0 0.00 0.00 0.00 75 1014.3
20260507080926 64 0.0 0.0 0.00 0.00 0.00 74 1014.4
20260507080429 64 0.0 0.0 0.00 0.00 0.00 73 1014.6
20260507075925 64 0.0 0.0 0.00 0.00 0.00 72 1014.6
20260507075428 64 0.0 0.0 0.00 0.00 0.00 74 1014.5
20260507074924 64 0.0 0.0 0.00 0.00 0.00 73 1015.0
20260507074426 63 0.0 0.0 0.00 0.00 0.00 75 1014.3
20260507073929 62 0.0 0.0 0.00 0.00 0.00 77 1014.4
20260507073425 61 0.0 0.0 0.00 0.00 0.00 77 1014.6
20260507072928 62 0.0 0.0 0.00 0.00 0.00 76 1014.3
20260507072424 62 0.0 0.0 0.00 0.00 0.00 75 1014.5
20260507071927 62 0.0 0.0 0.00 0.00 0.00 76 1014.3
20260507071429 61 0.0 0.0 0.00 0.00 0.00 77 1014.3
20260507070925 62 0.0 0.0 0.00 0.00 0.00 76 1014.3
20260507070428 62 0.0 0.0 0.00 0.00 0.00 77 1014.1
20260507065924 62 0.0 0.0 0.00 0.00 0.00 74 1014.3
20260507065427 62 0.0 0.0 0.00 0.00 0.00 75 1014.1
20260507064930 62 0.0 0.0 0.00 0.00 0.00 75 1014.5
20260507064425 61 0.0 0.0 0.00 0.00 0.00 79 1014.7
20260507063928 61 0.0 0.0 0.00 0.00 0.00 78 1014.4
20260507063424 60 0.0 0.0 0.00 0.00 0.00 80 1014.1
20260507062927 60 0.0 0.0 0.00 0.00 0.00 80 1014.4
20260507061926 60 0.0 0.0 0.00 0.00 0.00 80 1013.3
20260507061429 60 0.0 0.0 0.00 0.00 0.00 77 1013.8
20260507060925 60 0.0 0.0 0.00 0.00 0.00 77 1013.9
20260507060427 60 0.0 0.0 0.00 0.00 0.00 76 1013.9
20260507055923 60 0.0 0.0 0.00 0.00 0.00 76 1013.5
20260507055426 60 0.0 0.0 0.00 0.00 0.00 79 1013.9
20260507054929 60 0.0 0.0 0.00 0.00 0.00 80 1014.0
20260507054425 59 0.0 0.0 0.00 0.00 0.00 78 1012.9
20260507053928 59 0.0 0.0 0.00 0.00 0.00 82 1013.8
20260507053424 59 0.0 0.0 0.00 0.00 0.00 79 1013.7
20260507052926 58 0.0 0.0 0.00 0.00 0.00 80 1013.3
20260507052429 58 0.0 0.0 0.00 0.00 0.00 81 1014.2
20260507051925 58 0.0 0.0 0.00 0.00 0.00 81 1013.4
20260507051428 57 0.0 0.0 0.00 0.00 0.00 80 1013.2
20260507050924 58 0.0 0.0 0.00 0.00 0.00 81 1014.1
20260507050427 58 0.0 0.0 0.00 0.00 0.00 80 1013.5
20260507045930 58 0.0 0.0 0.00 0.00 0.00 82 1013.1
20260507045426 58 0.0 0.0 0.00 0.00 0.00 81 1013.3
20260507044928 58 0.0 0.0 0.00 0.00 0.00 82 1013.3
20260507044424 58 0.0 0.0 0.00 0.00 0.00 83 1013.3
20260507043927 57 0.0 0.0 0.00 0.00 0.00 81 1013.5
20260507043423 57 0.0 0.0 0.00 0.00 0.00 81 1013.7
20260507042926 57 0.0 0.0 0.00 0.00 0.00 82 1013.8
20260507042429 57 0.0 0.0 0.00 0.00 0.00 81 1013.4
20260507041925 58 0.0 0.0 0.00 0.00 0.00 82 1013.0
20260507041428 58 0.0 0.0 0.00 0.00 0.00 82 1013.1
20260507040923 58 0.0 0.0 0.00 0.00 0.00 81 1013.2
20260507040426 58 0.0 0.0 0.00 0.00 0.00 81 1013.1
20260507035929 58 0.0 0.0 0.00 0.00 0.00 81 1013.1
20260507035425 57 0.0 0.0 0.00 0.00 0.00 82 1012.9
20260507034928 57 0.0 0.0 0.00 0.00 0.00 83 1012.9
20260507034424 58 0.0 0.0 0.00 0.00 0.00 83 1013.3
20260507033927 57 0.0 0.0 0.00 0.00 0.00 82 1013.8
20260507033430 57 0.0 0.0 0.00 0.00 0.00 84 1013.9
20260507032925 57 0.0 0.0 0.00 0.00 0.00 84 1013.7
20260507032428 57 0.0 0.0 0.00 0.00 0.00 85 1013.7
20260507031924 57 0.0 0.0 0.00 0.00 0.00 85 1014.2
20260507031427 57 0.0 0.0 0.00 0.00 0.00 85 1012.8
20260507030930 57 0.0 0.0 0.00 0.00 0.00 84 1014.0
20260507030426 57 0.0 0.0 0.00 0.00 0.00 84 1013.1
20260507025929 57 0.0 0.0 0.00 0.00 0.00 85 1013.8
20260507025425 57 0.0 0.0 0.00 0.00 0.00 85 1012.8
20260507024423 57 0.0 0.0 0.00 0.00 0.00 85 1013.0
20260507023926 58 0.0 0.0 0.00 0.00 0.00 84 1013.7
20260507023429 57 0.0 0.0 0.00 0.00 0.00 84 1013.2
20260507022428 58 0.0 0.0 0.00 0.00 0.00 84 1013.3
20260507021427 57 0.0 0.0 0.00 0.00 0.00 85 1013.4
20260507020930 57 0.0 0.0 0.00 0.00 0.00 85 1013.7
20260507020426 57 0.0 0.0 0.00 0.00 0.00 85 1013.8
20260507015424 57 0.0 0.0 0.00 0.00 0.00 87 1014.3
20260507014927 57 0.0 0.0 0.00 0.00 0.00 88 1013.4
20260507014430 57 0.0 0.0 0.00 0.00 0.00 86 1012.9
20260507013926 57 0.0 0.0 0.00 0.00 0.00 87 1013.3
20260507013429 57 0.0 0.0 0.00 0.00 0.00 86 1012.9
20260507012925 57 0.0 0.0 0.00 0.00 0.00 88 1013.5
20260507012428 57 0.0 0.0 0.00 0.00 0.00 88 1013.5
20260507011923 56 0.0 0.0 0.00 0.00 0.00 89 1012.9
20260507011426 56 0.0 0.0 0.00 0.00 0.00 90 1013.3
20260507010929 56 0.0 0.0 0.00 0.00 0.00 89 1013.2
20260507010425 56 0.0 0.0 0.00 0.00 0.00 90 1013.5
20260507005928 56 0.0 0.0 0.00 0.00 0.00 90 1012.8
20260507005424 56 0.0 0.0 0.00 0.00 0.00 90 1013.7
20260507004927 56 0.0 0.0 0.00 0.00 0.00 90 1014.1
20260507004429 56 0.0 0.0 0.00 0.00 0.00 90 1013.6
20260507003925 56 0.0 0.0 0.00 0.00 0.00 89 1013.7
20260507003428 56 0.0 0.0 0.00 0.00 0.00 89 1014.1
20260507002924 56 0.0 0.0 0.00 0.00 0.00 89 1012.7
20260507002427 56 0.0 0.0 0.00 0.00 0.00 89 1013.4
20260507001930 56 0.0 0.0 0.00 0.00 0.00 89 1013.9
20260507001426 56 0.0 0.0 0.00 0.00 0.00 88 1013.1
20260507000929 57 0.0 0.0 0.00 0.00 0.00 88 1013.9
20260507000424 57 0.0 0.0 0.00 0.00 0.00 88 1013.8
20260506235927 57 0.0 0.0 0.00 0.00 0.00 89 1014.1
20260506235423 57 0.0 0.0 0.00 0.00 0.00 88 1013.3
20260506234926 57 0.0 0.0 0.00 0.00 0.00 88 1013.1
20260506234429 57 0.0 0.0 0.00 0.00 0.00 87 1012.8
20260506233925 57 0.0 0.0 0.00 0.00 0.00 88 1013.5
20260506233428 57 0.0 0.0 0.00 0.00 0.00 88 1013.3
20260506232924 57 0.0 0.0 0.00 0.00 0.00 88 1013.3
20260506232427 57 0.0 0.0 0.00 0.00 0.00 88 1014.0
20260506231930 57 0.0 0.0 0.00 0.00 0.00 87 1013.4
20260506231425 57 0.0 0.0 0.00 0.00 0.00 88 1013.0
20260506230928 57 0.0 0.0 0.00 0.00 0.00 88 1013.7
20260506230425 56 0.0 0.0 0.00 0.00 0.00 87 1013.8
20260506225927 57 0.0 0.0 0.00 0.00 0.00 88 1013.3
20260506225423 57 0.0 0.0 0.00 0.00 0.00 87 1013.2
20260506224926 57 0.0 0.0 0.00 0.00 0.00 88 1013.1
20260506224429 57 0.0 0.0 0.00 0.00 0.00 89 1012.5
20260506223925 57 0.0 0.0 0.00 0.00 0.00 88 1012.2
20260506223428 57 0.0 0.0 0.00 0.00 0.00 88 1013.3
20260506222924 57 0.0 0.0 0.00 0.00 0.00 88 1013.7
20260506222427 57 0.0 0.0 0.00 0.00 0.00 88 1012.7
20260506221929 57 0.0 0.0 0.00 0.00 0.00 88 1013.2
20260506221425 57 0.0 0.0 0.00 0.00 0.00 88 1013.8
20260506220928 57 0.0 0.0 0.00 0.00 0.00 87 1013.2
20260506220424 57 0.0 0.0 0.00 0.00 0.00 86 1013.5
20260506215924 58 0.0 0.0 0.00 0.00 1.35 87 1013.7
20260506215427 57 0.0 0.0 0.00 0.00 1.35 87 1013.3
20260506214930 57 0.0 0.0 0.00 0.00 1.35 87 1013.8
20260506214426 57 0.0 0.0 0.00 0.00 1.35 88 1013.3
20260506213929 57 0.0 0.0 0.00 0.00 1.35 88 1013.8
20260506213425 57 0.0 0.0 0.00 0.00 1.35 88 1013.3
20260506212927 57 0.0 0.0 0.00 0.00 1.35 89 1013.3
20260506212423 58 0.0 0.0 0.00 0.00 1.35 89 1012.7
20260506211926 58 0.0 0.0 0.00 0.00 1.35 89 1012.6
20260506211429 58 0.0 0.0 0.00 0.00 1.35 88 1013.5
20260506210925 59 0.0 0.0 0.00 0.00 1.35 87 1012.4
20260506210428 59 0.0 0.0 0.00 0.00 1.35 86 1013.6
20260506205924 59 0.0 0.0 0.00 0.00 1.35 86 1013.2
20260506205427 59 0.0 0.0 0.00 0.00 1.35 85 1013.4
20260506204930 59 0.0 0.0 0.00 0.00 1.35 86 1012.9
20260506204426 58 0.0 0.0 0.00 0.00 1.35 87 1013.0
20260506203928 58 0.0 0.0 0.00 0.00 1.35 88 1012.3
20260506202423 58 0.0 0.0 0.00 0.00 1.35 89 1012.5
20260506201926 58 0.0 0.0 0.00 0.00 1.35 89 1012.7
20260506201429 59 0.0 0.0 0.00 0.00 1.35 88 1012.2
20260506200925 58 0.0 0.0 0.00 0.00 1.35 88 1012.0
20260506200428 59 0.0 0.0 0.00 0.00 1.35 89 1011.7
20260506195923 59 0.0 0.0 0.00 0.00 1.35 88 1012.6
20260506195426 59 0.0 0.0 0.00 0.00 1.35 89 1012.5
20260506194929 58 0.0 0.0 0.00 0.00 1.35 89 1012.7
20260506194425 58 0.0 0.0 0.00 0.00 1.35 88 1011.8
20260506193928 59 0.0 0.0 0.00 0.00 1.35 88 1011.9
20260506193424 59 0.0 0.0 0.00 0.00 1.35 88 1011.9
20260506192927 59 0.0 0.0 0.00 0.00 1.35 89 1012.0
20260506192430 59 0.0 0.0 0.00 0.00 1.35 88 1011.9
20260506191926 59 0.0 0.0 0.00 0.00 1.35 88 1011.6
20260506191428 59 0.0 0.0 0.00 0.00 1.35 87 1011.4
20260506190925 60 0.0 0.0 0.00 0.00 1.35 86 1011.3
20260506190427 60 0.0 0.0 0.00 0.00 1.35 85 1011.5
20260506185923 60 0.0 0.0 0.00 0.00 1.35 85 1011.3
20260506185426 61 0.0 0.0 0.00 0.00 1.35 82 1011.5
20260506184929 61 0.0 0.0 0.00 0.00 1.35 81 1011.0
20260506184425 60 0.0 0.0 0.00 0.00 1.35 83 1011.4
20260506183928 61 0.0 0.0 0.00 0.00 1.35 82 1011.8
20260506183424 61 0.0 0.0 0.00 0.00 1.35 82 1011.1
20260506182927 60 0.0 0.0 0.00 0.00 1.35 85 1011.2
20260506182429 60 0.0 0.0 0.00 0.00 1.35 84 1011.2
20260506181925 61 0.0 0.0 0.00 0.00 1.35 83 1011.6
20260506180924 61 0.0 0.0 0.00 0.00 1.35 82 1010.8
20260506180427 61 0.0 0.0 0.00 0.00 1.35 80 1011.1
20260506175426 61 0.0 0.0 0.00 0.00 1.35 79 1010.8
20260506174929 61 0.0 0.0 0.00 0.00 1.35 79 1011.5
20260506174425 61 0.0 0.0 0.00 0.00 1.35 78 1011.1
20260506173928 62 0.0 0.0 0.00 0.00 1.35 77 1011.0
20260506173424 62 0.0 0.0 0.00 0.00 1.35 77 1010.2
20260506172926 62 0.0 0.0 0.00 0.00 1.35 77 1011.0
20260506172429 62 0.0 0.0 0.00 0.00 1.35 76 1010.6
20260506171925 62 0.0 0.0 0.00 0.00 1.35 75 1011.6
20260506171428 63 0.0 0.0 0.00 0.00 1.35 76 1010.7
20260506165930 63 0.0 0.0 0.00 0.00 1.35 77 1011.0
20260506165426 63 0.0 0.0 0.00 0.00 1.35 77 1010.7
20260506164929 62 0.0 0.0 0.00 0.00 1.35 76 1011.0
20260506164424 62 0.0 0.0 0.00 0.00 1.35 76 1010.9
20260506163927 63 0.0 0.0 0.00 0.00 1.35 78 1010.9
20260506163423 63 0.0 0.0 0.00 0.00 1.35 78 1011.1
20260506162926 63 0.0 0.0 0.00 0.00 1.35 78 1011.1
20260506162429 63 0.0 0.0 0.00 0.00 1.35 77 1010.7
20260506161925 64 0.0 0.0 0.00 0.00 1.35 76 1010.5
20260506161428 64 0.0 0.0 0.00 0.00 1.35 76 1010.9
20260506160924 65 0.0 0.0 0.00 0.00 1.35 76 1011.3
20260506160427 64 0.0 0.0 0.00 0.00 1.35 79 1011.2
20260506155929 64 0.0 0.0 0.00 0.00 1.35 79 1010.9
20260506155425 64 0.0 0.0 0.00 0.00 1.35 79 1010.5
20260506154928 64 0.0 0.0 0.00 0.00 1.35 78 1010.6
20260506154424 64 0.0 0.0 0.00 0.00 1.35 77 1010.7
20260506153927 64 0.0 0.0 0.00 0.00 1.35 76 1010.8
20260506153430 64 0.0 0.0 0.00 0.00 1.35 79 1010.1
20260506152926 65 0.0 0.0 0.00 0.00 1.35 78 1010.0
20260506152429 64 0.0 0.0 0.00 0.00 1.35 79 1010.1
20260506151925 65 0.0 0.0 0.00 0.00 1.35 77 1010.8
20260506151427 65 0.0 0.0 0.00 0.00 1.35 77 1011.3
20260506150923 65 0.0 0.0 0.00 0.00 1.35 79 1010.9
20260506150426 66 0.0 0.0 0.00 0.00 1.35 74 1010.3
20260506145929 67 0.0 0.0 0.00 0.00 1.35 74 1011.1
20260506145425 67 0.0 0.0 0.00 0.00 1.35 75 1010.5
20260506144928 67 0.0 0.0 0.00 0.00 1.35 74 1010.8
20260506144424 67 0.0 0.0 0.00 0.00 1.32 74 1010.5
20260506143926 68 0.0 0.0 0.00 0.00 1.30 71 1010.5
20260506143429 68 0.0 0.0 0.00 0.00 1.30 72 1010.0
20260506142428 68 0.0 0.0 0.00 0.00 1.30 72 1009.9